• In Belarus
  • List of Countries
  • For 7 days
  • Water Temperature
  • Satellite Maps
  • Weather Map
  • Weather Widgets
  • user-avatar
    Login

    Hourly Weather Jamusukro

    Today, 13 December, Thursday

    Time Temperature Precipitation Wind Pressure Humidity
    00:00 +24°C° 0 mm 0 mps 754 mmHg 78%
    01:00 +24°C° 0 mm 0 mps 754 mmHg 80%
    02:00 +23°C° 0 mm 0 mps 754 mmHg 82%
    03:00 +23°C° 0 mm 0 mps 754 mmHg 84%
    04:00 +23°C° 0 mm 0 mps 754 mmHg 84%
    05:00 +23°C° 0 mm 0 mps 754 mmHg 83%
    06:00 +22°C° 0 mm 0 mps 754 mmHg 83%
    07:00 +27°C° 0 mm 1 mps 755 mmHg 70%
    08:00 +30°C° 0 mm 1 mps 755 mmHg 56%
    09:00 +33°C° 0 mm 1 mps 755 mmHg 43%
    10:00 +35°C° 0 mm 1 mps 755 mmHg 35%
    11:00 +37°C° 0 mm 1 mps 754 mmHg 27%
    12:00 +39°C° 0 mm 1 mps 753 mmHg 22%
    13:00 +39°C° 0 mm 1 mps 753 mmHg 22%
    14:00 +39°C° 0 mm 2 mps 752 mmHg 21%
    15:00 +39°C° 0 mm 2 mps 752 mmHg 21%
    16:00 +36°C° 0 mm 1 mps 752 mmHg 27%
    17:00 +33°C° 0 mm 1 mps 752 mmHg 33%
    18:00 +31°C° 0 mm 1 mps 752 mmHg 40%
    19:00 +30°C° 0 mm 1 mps 753 mmHg 47%
    20:00 +29°C° 0 mm 1 mps 753 mmHg 54%
    21:00 +28°C° 0 mm 1 mps 754 mmHg 62%
    22:00 +27°C° 0 mm 1 mps 754 mmHg 67%
    23:00 +25°C° 0 mm 0 mps 754 mmHg 72%

    Tomorrow, 14 December, Friday

    Time Temperature Precipitation Wind Pressure Humidity
    00:00 +24°C° 0 mm 0 mps 754 mmHg 77%
    01:00 +24°C° 0 mm 0 mps 754 mmHg 80%
    02:00 +24°C° 0 mm 0 mps 754 mmHg 84%
    03:00 +23°C° 0 mm 0 mps 753 mmHg 87%
    04:00 +23°C° 0 mm 0 mps 754 mmHg 88%
    05:00 +23°C° 0 mm 0 mps 754 mmHg 89%
    06:00 +23°C° 0 mm 0 mps 754 mmHg 91%
    07:00 +26°C° 0 mm 0 mps 755 mmHg 80%
    08:00 +28°C° 0 mm 0 mps 755 mmHg 69%
    09:00 +31°C° 0 mm 0 mps 755 mmHg 59%
    10:00 +33°C° 0 mm 0 mps 755 mmHg 49%
    11:00 +37°C° 0 mm 1 mps 754 mmHg 38%
    12:00 +41°C° 0 mm 1 mps 754 mmHg 28%
    13:00 +40°C° 0 mm 1 mps 753 mmHg 28%
    14:00 +40°C° 0 mm 1 mps 752 mmHg 28%
    15:00 +39°C° 0 mm 2 mps 752 mmHg 27%
    16:00 +37°C° 0 mm 2 mps 752 mmHg 37%
    17:00 +34°C° 0 mm 2 mps 752 mmHg 48%
    18:00 +31°C° 0 mm 2 mps 753 mmHg 58%
    19:00 +30°C° 0 mm 2 mps 753 mmHg 67%
    20:00 +29°C° 0 mm 2 mps 754 mmHg 76%
    21:00 +28°C° 0 mm 1 mps 754 mmHg 85%
    22:00 +28°C° 0 mm 1 mps 754 mmHg 87%
    23:00 +27°C° 0 mm 1 mps 754 mmHg 90%

    Day after tomorrow, 15 December, Saturday

    Time Temperature Precipitation Wind Pressure Humidity
    00:00 +27°C° 0 mm 1 mps 754 mmHg 92%
    01:00 +27°C° 0 mm 1 mps 754 mmHg 90%
    02:00 +28°C° 0 mm 1 mps 754 mmHg 88%
    03:00 +28°C° 0 mm 1 mps 753 mmHg 86%
    04:00 +28°C° 0 mm 1 mps 754 mmHg 85%
    05:00 +28°C° 0 mm 1 mps 754 mmHg 84%
    06:00 +26°C° 0 mm 0 mps 754 mmHg 82%
    07:00 +27°C° 0 mm 0 mps 755 mmHg 79%
    08:00 +29°C° 0 mm 1 mps 756 mmHg 75%
    09:00 +30°C° 0 mm 1 mps 756 mmHg 71%
    10:00 +33°C° 0 mm 1 mps 756 mmHg 61%
    11:00 +35°C° 0 mm 1 mps 755 mmHg 50%
    12:00 +39°C° 0 mm 1 mps 754 mmHg 40%
    13:00 +39°C° 0 mm 1 mps 753 mmHg 39%
    14:00 +37°C° 0 mm 1 mps 753 mmHg 39%
    15:00 +37°C° 0 mm 1 mps 752 mmHg 38%
    16:00 +36°C° 0 mm 2 mps 752 mmHg 46%
    17:00 +34°C° 0 mm 2 mps 752 mmHg 54%
    18:00 +31°C° 0 mm 2 mps 753 mmHg 62%
    19:00 +30°C° 0 mm 2 mps 753 mmHg 69%
    20:00 +29°C° 0 mm 2 mps 754 mmHg 76%
    21:00 +28°C° 0 mm 1 mps 754 mmHg 82%
    22:00 +28°C° 0 mm 1 mps 754 mmHg 85%
    23:00 +27°C° 0 mm 1 mps 754 mmHg 87%

    16 December, Sunday

    Time Temperature Precipitation Wind Pressure Humidity
    00:00 +27°C° 0 mm 1 mps 753 mmHg 90%
    01:00 +27°C° 0 mm 1 mps 753 mmHg 92%
    02:00 +26°C° 0 mm 1 mps 753 mmHg 94%
    03:00 +24°C° 0 mm 0 mps 753 mmHg 96%
    04:00 +24°C° 0 mm 0 mps 753 mmHg 94%
    05:00 +25°C° 0 mm 0 mps 754 mmHg 93%
    06:00 +25°C° 0 mm 0 mps 754 mmHg 92%
    07:00 +28°C° 0.1 mm 1 mps 755 mmHg 87%
    08:00 +29°C° 0.1 mm 1 mps 755 mmHg 82%
    09:00 +30°C° 0.1 mm 1 mps 755 mmHg 76%
    10:00 +32°C° 0.1 mm 1 mps 755 mmHg 68%
    11:00 +33°C° 0.1 mm 1 mps 754 mmHg 60%
    12:00 +35°C° 0.1 mm 1 mps 753 mmHg 52%
    13:00 +35°C° 0.1 mm 1 mps 753 mmHg 52%
    14:00 +36°C° 0.1 mm 2 mps 752 mmHg 52%
    15:00 +35°C° 0.1 mm 2 mps 751 mmHg 52%
    16:00 +34°C° 0.1 mm 2 mps 752 mmHg 59%
    17:00 +32°C° 0.1 mm 2 mps 752 mmHg 66%
    18:00 +30°C° 0.1 mm 2 mps 753 mmHg 72%
    19:00 +29°C° 0.1 mm 2 mps 753 mmHg 78%
    20:00 +28°C° 0.1 mm 2 mps 754 mmHg 83%
    21:00 +28°C° 0.1 mm 1 mps 755 mmHg 88%
    22:00 +27°C° 0 mm 1 mps 754 mmHg 90%
    23:00 +27°C° 0 mm 1 mps 754 mmHg 92%

    17 December, Monday

    Time Temperature Precipitation Wind Pressure Humidity
    00:00 +27°C° 0 mm 1 mps 754 mmHg 94%
    01:00 +27°C° 0 mm 1 mps 753 mmHg 95%
    02:00 +26°C° 0 mm 1 mps 753 mmHg 95%
    03:00 +26°C° 0 mm 1 mps 753 mmHg 96%
    04:00 +27°C° 0.1 mm 1 mps 753 mmHg 94%
    05:00 +27°C° 0.1 mm 1 mps 753 mmHg 92%
    06:00 +26°C° 0.1 mm 0 mps 754 mmHg 90%
    07:00 +26°C° 0.1 mm 0 mps 754 mmHg 86%
    08:00 +27°C° 0.1 mm 0 mps 755 mmHg 82%
    09:00 +28°C° 0.1 mm 0 mps 755 mmHg 78%
    10:00 +30°C° 0.7 mm 0 mps 755 mmHg 69%
    11:00 +32°C° 0.7 mm 0 mps 754 mmHg 61%
    12:00 +34°C° 0.7 mm 0 mps 753 mmHg 53%
    13:00 +34°C° 0.2 mm 0 mps 753 mmHg 52%
    14:00 +35°C° 0.2 mm 1 mps 752 mmHg 51%
    15:00 +35°C° 0.2 mm 1 mps 751 mmHg 50%
    16:00 +33°C° 0 mm 1 mps 752 mmHg 56%
    17:00 +32°C° 0 mm 2 mps 752 mmHg 62%
    18:00 +30°C° 0 mm 2 mps 752 mmHg 68%
    19:00 +29°C° 0 mm 2 mps 753 mmHg 73%
    20:00 +28°C° 0 mm 1 mps 753 mmHg 78%
    21:00 +28°C° 0 mm 1 mps 754 mmHg 83%
    22:00 +27°C° 0 mm 1 mps 753 mmHg 86%
    23:00 +27°C° 0 mm 1 mps 753 mmHg 88%

    18 December, Tuesday

    Time Temperature Precipitation Wind Pressure Humidity
    00:00 +26°C° 0 mm 1 mps 753 mmHg 91%
    01:00 +26°C° 0 mm 1 mps 753 mmHg 92%
    02:00 +24°C° 0 mm 0 mps 752 mmHg 94%
    03:00 +24°C° 0 mm 0 mps 752 mmHg 95%
    04:00 +24°C° 0 mm 0 mps 753 mmHg 95%
    05:00 +24°C° 0 mm 0 mps 753 mmHg 94%
    06:00 +24°C° 0 mm 0 mps 753 mmHg 94%
    07:00 +26°C° 0.1 mm 0 mps 754 mmHg 84%
    08:00 +28°C° 0.1 mm 0 mps 754 mmHg 75%
    09:00 +30°C° 0.1 mm 0 mps 755 mmHg 66%
    10:00 +32°C° 0 mm 0 mps 754 mmHg 58%
    11:00 +34°C° 0 mm 0 mps 753 mmHg 50%
    12:00 +36°C° 0 mm 0 mps 753 mmHg 42%
    13:00 +35°C° 0 mm 0 mps 752 mmHg 40%
    14:00 +37°C° 0 mm 1 mps 751 mmHg 38%
    15:00 +37°C° 0 mm 1 mps 751 mmHg 36%
    16:00 +35°C° 0 mm 1 mps 751 mmHg 45%
    17:00 +34°C° 0 mm 2 mps 751 mmHg 54%
    18:00 +31°C° 0 mm 2 mps 752 mmHg 63%
    19:00 +30°C° 0 mm 2 mps 752 mmHg 70%
    20:00 +29°C° 0 mm 2 mps 753 mmHg 78%
    21:00 +28°C° 0 mm 1 mps 753 mmHg 85%
    22:00 +28°C° 0 mm 1 mps 753 mmHg 88%
    23:00 +27°C° 0 mm 1 mps 753 mmHg 91%
    Show more